Volver al catálogo

FENGYUN 1C DEB

ActivoSSO
NORAD 30579·DEBRIS·🇨🇳 China

Lanzado May 10, 1999 desde Taiyuan Satellite Launch Center

Loading…

Próximos Pases (próximas 24 horas)

TLE

ActualizadoSource: Space-Track

Época: Sep 14, 2026, 00:46 UTC

1 30579U 99025ALV 26257.03232955  .00000081  00000-0  74968-4 0  9997
2 30579  98.7868 278.5174 0053655  52.2390 336.4623 14.05504196  3242

Sigue FENGYUN 1C DEB en tiempo real con AllMySat

Download on the App Store